Location: Cutler
(25.6150°N, 80.3110°W)
Time: 02:04:22
(UTC-04:00)

Cosmos 2360 Rocket - Visible Passes

Search period start: 05 July 2015 00:00
Search period end: 15 July 2015 00:00
Orbit: 833 x 846 km, 71.0° (Epoch: 03 July)

Date Brightness Start Highest point End Pass type
(mag) Time Alt. Az. Time Alt. Az. Time Alt. Az.
05 Jul 4.3 00:39:57 10° NNW 00:41:50 22° NNW 00:41:50 22° NNW visible
05 Jul 4.5 22:44:01 10° NE 22:44:45 11° NE 22:44:45 11° NE visible
06 Jul 4.1 00:24:18 10° NNW 00:26:31 25° NNW 00:26:31 25° NNW visible
07 Jul 3.9 00:08:39 10° NNW 00:11:13 28° NNW 00:11:13 28° NNW visible
07 Jul 3.7 23:53:00 10° NNW 23:55:57 32° NNW 23:55:57 32° NNW visible
08 Jul 3.4 23:37:22 10° NNW 23:40:44 38° NNW 23:40:44 38° NNW visible
09 Jul 3.1 23:21:45 10° NNW 23:25:32 44° NNW 23:25:32 44° NNW visible
10 Jul 2.8 23:06:08 10° NNW 23:10:23 53° N 23:10:23 53° N visible
11 Jul 2.4 22:50:31 10° NNW 22:55:16 61° NNE 22:55:16 61° NNE visible
12 Jul 2.2 22:34:54 10° NNW 22:40:12 67° NE 22:40:12 67° NE visible
13 Jul 2.1 22:19:18 10° N 22:24:52 63° ENE 22:25:11 62° E visible
14 Jul 2.3 22:03:42 10° N 22:09:14 58° ENE 22:10:12 51° ESE visible
14 Jul 4.7 23:50:42 10° WNW 23:52:00 12° W 23:52:00 12° W visible
